Location: *
(49.5667°N, 1.3667°W)
Time: 08:24:10
(UTC+00:00)

Meteor 1-12 Rocket - Pass Details

Date: 20 September 2019
Orbit: 855 x 926 km, 81.2° (Epoch: 19 October)

Event Time Altitude Azimuth Distance (km) Brightness Sun altitude
Rises 18:59:31 0° 190° (S) 3,458 7.4 -9.0°
Reaches altitude 10° 19:01:57 10° 190° (S) 2,514 6.7 -9.4°
Maximum altitude 19:07:40 90° 260° (W) 870 4.3 -10.3°
Drops below altitude 10° 19:13:22 10° 12° (NNE) 2,502 6.7 -11.2°
Sets 19:15:47 0° 13° (NNE) 3,440 7.4 -11.6°
